Flag for U.S.A. Weather past 2 weeks in Sterling Heights, Michigan, U.S.A.

47 °F

Passing clouds.

Feels Like: 43 °F
Forecast: 41 / 51 °F
Wind: 9 mph from Southwest

Location: Selfridge Air National Guard Base

Current Time: Nov 26, 2015 at 3:07:56 AM

Latest Report: Nov 26, 2015 at 1:58 AM

Visibility: 10 mi

Pressure: 30.37 "Hg

Humidity: 58%

Dew point: 33 °F

Location of Sterling HeightsLocation

Historic Weather in Sterling Heights — Graph


Sterling Heights temperature yesterday

Maximum temperature yesterday: 49 °F (at 2:58 PM)
Minimum temperature yesterday: 27 °F (at 3:03 AM)
Average temperature yesterday: 39 °F

Past Weeks' High & Low Weather Summary

High67 °F (Nov 15, 2:58 PM)100% (Nov 11, 7:03 AM)30.48 "Hg (Nov 11, 7:03 AM)
Low20 °F (Nov 22, 7:58 PM)28% (Nov 20, 2:58 PM)29.33 "Hg (Nov 12, 7:58 AM)
Average42 °F71%30.06 "Hg
* Reported Nov 11 1:58 AM — Nov 26 1:58 AM, Sterling Heights, Weather by CustomWeather, © 2015

Note: Actual official high and low records may vary slightly from our data, if they occured in-between our weather recording intervals... More about our weather records


Sterling Heights weather history for previous 24 hours

Time TempWeatherWind HumidityBarometerVisibility
1:58 AM
Thu, Nov 26
47 °FPassing clouds.9 mph58%30.37 "Hg10 mi
12:58 AM45 °FPassing clouds.13 mph62%30.37 "Hg10 mi
11:58 PM
Wed, Nov 25
43 °FPassing clouds.10 mph74%30.37 "Hg10 mi
10:58 PM42 °FPassing clouds.10 mph81%30.36 "Hg10 mi
9:58 PM42 °FClear.10 mph83%30.36 "Hg10 mi
8:58 PM44 °FClear.10 mph79%30.38 "Hg10 mi
7:58 PM45 °FHigh level clouds.13 mph77%30.37 "Hg10 mi
6:58 PM43 °FHigh level clouds.8 mph81%30.38 "Hg10 mi
5:58 PM42 °FHigh level clouds.6 mph85%30.38 "Hg10 mi
4:58 PM44 °FHigh level clouds.7 mph80%30.37 "Hg10 mi
3:58 PM47 °FPartly sunny.10 mph74%30.37 "Hg10 mi
2:58 PM49 °FPartly sunny.13 mph69%30.37 "Hg10 mi
1:58 PM48 °FPassing clouds.14 mph71%30.39 "Hg10 mi
12:58 PM46 °FPassing clouds.10 mph75%30.44 "Hg10 mi
11:58 AM43 °FPassing clouds.9 mph79%30.46 "Hg10 mi
10:58 AM42 °FPassing clouds.10 mph79%30.48 "Hg10 mi
9:58 AM41 °FPassing clouds.10 mph82%30.47 "Hg10 mi
8:58 AM37 °FPassing clouds.8 mph88%30.47 "Hg10 mi
7:58 AM35 °FPassing clouds.9 mph91%30.45 "Hg10 mi
6:58 AM34 °FClear.8 mph90%30.45 "Hg10 mi
5:58 AM33 °FClear.7 mph90%30.45 "Hg10 mi
4:58 AM33 °FClear.7 mph95%30.45 "Hg10 mi
3:58 AM28 °FPassing clouds.3 mph97%30.44 "Hg10 mi
3:03 AM27 °FIce fog.2 mph100%30.41 "Hg0 mi
Weather by CustomWeather, © 2015

See weather overviewHow to use our weather pages